Voltar ao catálogo

SCOUT G-1 R/B

AtivoPO
NORAD 19421·ROCKET BODY·🇺🇸 United States

Lançado Aug 25, 1988 de Vandenberg Space Force Base

Loading…

Próximas Passagens (próximas 24 horas)

TLE

AtualizadoSource: Space-Track

Época: Sep 14, 2026, 15:23 UTC

1 19421U 88074C   26257.64157145  .00000071  00000-0  10731-3 0  9992
2 19421  90.0510  21.8521 0094802 208.3441 162.6801 13.42036983862827

Acompanhe SCOUT G-1 R/B em tempo real com AllMySat

Download on the App Store